This demonstration page uses our WeatherBlox Daily Observations layout. Learn more.

38.88101, -77.10428

Hourly Observations for May 15, 2019

Temp ( °F °C ) Dew Point ( °F °C ) Humidity (%) Winds ( mph kmh ) Pressure ( in mb ) Visibility ( mi km ) Precip ( " mm )
12:52 am 00:52 Mostly Clear 53 11.7 41 5 64 64 WNW 9 15 29.97 1015 10 16.0934 0 0
1:52 am 01:52 Clear 53 11.7 41 5 64 64 WNW 9 15 29.96 1015 10 16.0934 0 0
2:52 am 02:52 Clear 53 11.7 41 5 64 64 NW 9 15 29.96 1015 10 16.0934 0 0
3:52 am 03:52 Clear 53 11.7 41 5 64 64 NW 10 17 29.95 1014 10 16.0934 0 0
4:52 am 04:52 Clear 51 10.6 41 5 69 69 NNW 6 9 29.95 1014 10 16.0934 0 0
5:52 am 05:52 Mostly Clear 51 10.6 41 5 69 69 NNW 6 9 29.96 1014 10 16.0934 0 0
6:52 am 06:52 Mostly Sunny 54 12.2 41 5 62 62 NW 10 17 29.97 1015 10 16.0934 0 0
7:52 am 07:52 Sunny 58 14.4 42 5.6 56 56 NW 10 17 29.98 1015 10 16.0934 0 0
8:52 am 08:52 Mostly Sunny 61 16.1 42 5.6 50 50 NNW 13 20 29.99 1016 10 16.0934 0 0
9:52 am 09:52 Mostly Sunny 64 17.8 44 6.7 48 48 NNW 10 17 29.98 1015 10 16.0934 0 0
10:52 am 10:52 Partly Cloudy 66 18.9 43 6.1 43 43 NNW 8 13 29.98 1015 10 16.0934 0 0
11:52 am 11:52 Partly Cloudy 69 20.6 43 6.1 39 39 NNW 10 17 29.96 1015 10 16.0934 0 0
12:52 pm 12:52 Partly Cloudy 72 22.2 39 3.9 30 30 W 16 26 29.95 1014 10 16.0934 0 0
1:52 pm 13:52 Mostly Cloudy 73 22.8 42 5.6 33 33 N 12 19 29.93 1014 10 16.0934 0 0
2:52 pm 14:52 Mostly Cloudy 76 24.4 40 4.4 27 27 W 9 15 29.91 1013 10 16.0934 0 0
3:52 pm 15:52 Mostly Cloudy 74 23.3 40 4.4 29 29 WSW 9 15 29.9 1013 10 16.0934 0 0
4:52 pm 16:52 Mostly Cloudy 75 23.9 39 3.9 27 27 NW 12 19 29.89 1012 10 16.0934 0 0
5:52 pm 17:52 Mostly Cloudy 73 22.8 38 3.3 28 28 W 10 17 29.89 1012 10 16.0934 0 0
6:52 pm 18:52 Mostly Cloudy 73 22.8 39 3.9 29 29 W 13 20 29.89 1012 10 16.0934 0 0
7:52 pm 19:52 Partly Cloudy 72 22.2 39 3.9 30 30 W 10 17 29.91 1013 10 16.0934 0 0
8:52 pm 20:52 Partly Cloudy 68 20 41 5 38 38 WSW 6 9 29.91 1013 10 16.0934 0 0
9:52 pm 21:52 Partly Cloudy 66 18.9 42 5.6 42 42 WSW 8 13 29.92 1013 10 16.0934 0 0
10:52 pm 22:52 Mostly Cloudy 64 17.8 44 6.7 48 48 S 5 7 29.93 1014 10 16.0934 0 0
11:52 pm 23:52 Mostly Cloudy 61 16.1 52 11.1 72 72 S 6 9 29.93 1014 10 16.0934 0 0

Powered by AerisWeather